Theta_e
322 324 327 336 343 347 348 349 350 349 349 348 349 348 349 348 348 348 348 348 349 348 348 348 348 348 349 348 348 349 348 348 348 348 348 348 348 348 347 347 348 348 348 349 349 349 349 350 350 350 350 349 349 350 350 350 350 348 347 345 343 341 340 341 342 344 344 344 346 347 347 349 350 352 352 350 349 350 349 349 348 346 346 348 351
324 324 327 330 344 347 349 349 349 350 349 349 348 348 348 348 347 347 348 348 348 348 348 348 348 348 348 347 348 348 348 348 347 347 347 347 347 347 347 348 348 347 348 348 348 348 349 349 349 349 348 349 348 348 348 348 346 345 343 341 338 336 336 336 337 341 341 342 342 342 341 343 347 350 351 350 350 349 349 348 348 344 342 349 351
324 323 327 330 345 347 348 348 349 350 349 349 348 348 347 348 348 348 347 347 347 347 347 347 348 347 347 347 347 348 346 346 346 346 346 346 346 346 347 346 347 347 347 347 347 347 347 347 346 344 344 344 344 344 344 343 342 340 339 337 334 333 333 332 333 337 338 338 339 338 337 337 341 349 350 350 350 349 349 348 348 347 344 348 350
323 325 327 335 343 346 348 348 349 349 348 349 348 348 347 347 348 348 347 347 347 347 347 347 347 347 347 346 346 346 345 345 345 344 344 344 344 344 345 346 346 346 346 346 346 346 346 345 342 340 338 338 339 339 338 338 336 336 335 334 333 332 332 328 328 331 332 333 334 333 332 330 333 343 350 350 350 350 349 348 348 347 347 346 349
325 325 327 333 341 343 347 348 348 348 348 348 347 348 347 347 347 347 347 347 347 347 347 346 346 346 346 346 345 345 344 344 343 343 343 342 342 342 342 343 344 345 345 346 346 344 343 341 339 337 335 335 335 335 334 334 334 334 333 332 332 331 330 326 326 326 326 326 327 326 325 327 329 336 350 350 350 349 349 348 347 347 347 347 347
324 325 327 330 334 339 345 347 347 347 347 347 347 347 347 347 347 347 347 347 347 346 346 346 345 344 344 343 343 343 342 342 342 341 340 340 340 340 339 341 342 342 342 342 341 340 338 337 337 335 333 333 333 333 333 333 332 331 331 330 330 329 327 326 326 325 322 321 320 319 319 323 326 329 345 348 349 348 348 347 347 347 347 348 347
324 323 325 327 329 334 342 346 347 347 347 346 347 346 346 346 345 345 346 346 345 344 344 343 343 342 342 342 341 341 340 340 339 338 339 338 338 338 337 339 339 339 339 339 339 337 336 334 333 333 332 332 332 331 330 330 330 330 329 328 328 327 326 325 325 323 320 313 311 313 316 321 322 325 342 348 348 348 347 347 347 347 347 347 347
321 321 322 324 325 333 342 345 346 345 345 345 345 344 344 344 344 344 344 344 343 342 343 342 341 341 341 340 340 340 339 338 337 336 336 336 336 336 337 336 336 336 336 335 336 335 334 333 332 332 332 330 329 328 328 328 328 328 326 325 326 325 324 324 323 319 318 309 310 312 316 322 321 324 340 348 348 348 347 347 347 347 347 346 346
321 320 321 321 323 334 339 343 344 344 343 343 343 342 342 342 342 342 342 342 341 341 340 340 339 339 339 340 339 338 337 336 335 335 334 333 334 335 335 335 334 335 335 334 333 332 332 331 331 330 330 328 327 327 327 327 326 325 324 324 324 323 323 321 319 316 309 308 309 311 317 324 322 324 337 346 347 348 347 346 346 348 348 347 346
320 319 317 318 320 334 337 341 343 343 343 342 342 341 341 341 340 341 340 340 340 339 338 338 337 336 339 337 336 336 335 333 334 332 331 332 333 333 333 333 332 332 332 333 331 330 331 330 330 329 328 326 326 325 325 325 324 323 322 322 322 322 321 319 315 312 305 307 309 309 316 327 321 325 339 344 347 347 346 345 344 343 344 345 346
318 317 317 318 318 334 338 339 341 341 340 340 340 340 339 339 339 338 339 339 338 337 336 335 335 335 334 334 333 333 332 332 331 330 330 330 331 331 331 331 330 330 331 331 331 330 329 330 329 328 326 326 325 324 324 323 322 321 321 320 320 320 319 316 310 303 304 305 308 308 313 324 320 326 344 346 347 345 344 344 344 344 345 345 345
317 316 316 316 324 333 337 338 338 337 339 338 338 338 338 337 337 335 336 336 336 334 334 334 334 334 334 333 332 331 331 330 329 329 329 329 329 329 329 329 329 329 329 329 329 330 329 328 327 326 325 323 323 323 322 321 320 319 319 318 317 318 316 313 304 303 302 303 307 310 309 315 319 332 340 342 341 341 340 340 339 340 340 340 341
316 316 315 316 318 331 335 336 337 336 336 337 337 336 336 335 335 335 335 334 334 333 333 333 333 333 332 332 332 330 330 330 329 329 328 328 328 328 328 328 328 327 327 327 328 328 328 328 326 325 324 323 322 322 320 319 319 318 317 317 315 314 312 311 301 301 302 302 307 307 309 314 320 334 336 339 339 338 338 338 338 338 338 338 337
314 315 315 317 318 327 333 335 335 335 335 335 334 334 334 334 334 334 333 333 332 332 332 332 333 332 331 331 330 329 329 328 328 328 327 327 327 327 327 327 327 327 327 327 327 327 327 326 325 324 323 322 322 320 319 318 318 317 316 315 313 312 308 305 305 300 303 302 306 308 307 314 322 332 334 336 336 336 335 335 335 335 335 335 335
314 313 314 315 318 321 327 332 333 334 335 333 333 333 334 333 332 332 332 332 332 331 331 331 331 330 330 329 329 328 327 327 327 327 326 326 326 325 326 326 326 326 326 326 325 325 325 325 324 323 322 321 320 319 318 317 316 315 315 313 312 310 306 297 298 298 301 304 303 307 306 311 329 330 332 333 334 333 333 333 333 332 333 333 332
313 312 312 313 315 316 321 325 330 332 332 333 333 332 332 332 332 332 332 331 331 331 330 330 330 329 329 329 328 327 327 327 326 326 325 325 325 325 325 325 325 325 325 324 324 323 322 322 322 321 320 320 319 318 317 316 314 313 313 311 310 309 306 300 296 296 298 300 301 305 306 312 327 329 330 331 331 331 331 331 331 331 331 331 331
311 311 313 313 312 314 316 318 323 328 328 329 330 331 332 331 330 331 331 330 330 330 329 329 329 328 328 328 327 327 326 326 325 325 325 324 324 323 324 324 324 324 323 322 321 321 320 320 319 319 319 319 318 316 315 314 313 311 310 309 309 307 305 300 294 294 297 302 301 303 305 314 325 327 328 329 329 329 329 329 329 329 330 330 330
309 310 313 313 312 312 314 314 320 322 322 325 327 328 330 331 330 330 330 329 329 329 328 327 326 327 327 326 326 325 324 324 324 324 323 323 323 323 322 322 323 322 321 320 319 318 318 317 317 317 317 317 316 315 314 312 311 309 308 307 307 305 303 299 293 294 296 302 296 303 305 320 325 327 328 328 327 328 328 328 328 328 328 328 328
307 308 311 312 313 311 313 313 314 318 319 318 319 324 327 328 329 329 329 328 328 327 326 325 325 325 325 324 324 323 322 322 322 322 321 321 320 321 321 322 321 320 319 319 318 317 316 315 315 315 315 315 314 313 312 310 308 307 307 305 303 302 300 296 292 292 294 296 296 298 306 319 323 326 326 327 326 327 327 326 326 327 327 327 327
306 308 310 311 312 311 310 311 313 316 316 314 316 315 323 324 327 328 327 327 327 326 325 324 322 320 320 319 319 316 316 314 317 316 319 319 320 317 320 321 320 319 318 317 317 316 315 314 313 312 311 311 311 311 309 309 307 306 304 303 300 298 292 291 291 292 291 296 298 296 313 317 322 326 325 325 325 325 325 325 326 326 326 327 327
306 307 308 310 310 311 310 310 310 313 312 312 312 313 317 322 323 323 324 324 325 324 324 320 315 314 311 311 309 304 304 305 305 305 312 308 314 316 319 319 318 317 316 316 315 315 314 313 311 310 307 306 304 304 305 306 305 305 303 300 297 290 291 290 290 293 292 294 296 299 313 316 319 323 325 324 324 324 324 324 324 325 325 326 326
306 307 307 309 309 310 310 310 309 309 309 310 311 311 312 319 313 314 314 319 320 320 314 309 310 305 310 303 299 301 299 299 301 308 305 307 310 314 315 316 317 316 315 315 314 313 313 311 310 308 306 304 300 290 292 298 301 301 299 296 290 289 290 289 289 289 291 292 295 305 312 316 318 321 324 324 323 323 323 323 324 324 325 325 325
306 306 308 307 309 309 309 310 309 308 308 308 309 309 310 310 309 311 311 316 312 308 305 306 301 301 298 296 297 297 296 298 299 302 303 308 308 312 314 314 314 314 313 312 312 312 311 309 308 305 303 300 290 288 288 287 289 295 294 289 288 288 289 288 289 288 289 293 291 307 310 314 316 319 322 323 322 321 322 322 323 323 324 324 324
307 308 308 307 307 309 309 309 308 306 307 307 307 308 307 308 308 308 309 308 305 303 301 299 299 296 295 295 294 295 296 297 306 307 308 303 306 309 310 310 309 307 306 303 308 308 308 306 304 300 296 292 288 288 288 287 288 287 288 287 287 287 288 288 287 287 288 291 293 305 308 312 315 317 321 321 321 321 321 322 322 323 323 323 324
306 306 305 307 307 308 308 307 307 305 306 306 306 306 306 306 305 304 305 303 302 300 298 296 295 294 293 294 293 295 296 298 297 297 295 295 293 291 292 291 292 292 296 289 289 292 290 288 289 291 288 289 288 288 288 287 288 287 287 287 287 286 287 287 286 286 287 288 293 303 306 310 313 316 319 320 320 320 321 321 322 322 322 322 323
301 304 306 307 307 307 308 307 305 305 305 306 306 306 305 305 303 303 302 301 300 298 295 294 293 293 292 293 295 295 295 294 293 292 291 291 289 288 288 289 289 290 291 288 288 288 287 287 288 288 287 287 287 287 288 289 287 286 286 286 287 286 286 286 286 286 286 287 291 302 304 307 311 314 317 319 319 320 320 321 321 321 321 321 322
301 304 305 306 306 306 306 306 305 304 303 304 304 304 303 304 303 301 301 299 297 297 294 293 293 292 292 294 294 293 292 291 291 290 289 289 288 287 287 287 287 287 289 288 287 288 287 287 286 287 286 286 286 286 286 286 286 286 286 286 286 286 286 285 285 285 285 286 291 299 302 305 309 312 315 317 319 319 320 320 321 321 321 321 321
299 301 302 304 304 305 306 305 305 304 303 302 303 302 302 301 301 302 301 300 297 296 294 293 293 292 292 294 294 293 292 290 290 288 288 288 288 288 287 287 287 287 288 288 287 286 286 286 286 285 286 286 286 285 286 285 285 285 285 285 285 285 285 285 285 285 285 285 287 293 301 304 307 309 313 315 317 318 318 319 320 320 321 321 320
298 299 300 301 303 304 305 305 305 304 303 302 302 302 301 300 299 299 298 300 296 295 294 293 293 292 292 293 293 291 290 290 289 288 287 288 288 287 286 286 287 287 288 287 287 287 286 286 286 285 284 285 285 285 285 285 284 285 285 285 285 284 285 285 284 285 285 285 285 290 298 301 305 307 310 313 315 316 317 318 319 319 319 319 319
298 299 298 299 301 302 303 304 305 304 303 301 302 300 300 299 298 298 298 299 295 294 293 293 293 292 292 292 292 291 291 290 289 287 288 287 287 287 287 286 286 287 286 287 286 286 286 285 285 284 285 284 285 288 285 284 284 284 285 284 284 284 284 284 284 284 285 285 285 287 294 298 302 305 308 310 313 314 315 317 317 319 318 318 318
297 297 298 298 299 300 302 303 304 304 302 301 301 300 299 299 298 297 297 296 295 294 293 293 292 292 292 292 291 291 290 289 289 288 287 287 287 287 286 286 286 286 286 286 286 286 285 285 285 284 284 284 284 285 284 284 283 284 285 284 284 284 284 284 285 285 284 284 284 285 288 295 298 301 304 306 309 312 313 314 316 316 315 315 316
296 296 297 297 296 298 300 301 303 303 301 300 300 299 298 298 298 296 296 295 294 293 293 292 293 292 292 291 291 290 291 289 289 288 288 287 286 286 285 285 285 285 286 286 286 286 285 285 285 284 284 284 284 284 284 283 282 283 283 283 284 284 284 284 284 284 284 284 284 285 285 290 294 297 300 303 306 310 311 312 312 311 311 312 313
297 297 297 296 296 296 298 299 301 301 301 300 299 299 298 297 296 295 295 295 294 293 292 292 292 292 292 291 290 290 291 289 289 289 290 287 286 285 284 286 286 286 286 286 286 285 286 285 285 284 283 283 283 283 285 282 283 282 282 283 283 283 284 284 284 284 284 284 284 284 285 287 286 292 295 298 302 307 308 308 308 308 308 309 311
297 297 295 295 296 297 298 298 299 299 300 300 299 298 297 296 296 294 295 294 293 293 293 292 292 291 292 291 290 290 290 289 289 288 288 287 286 285 285 285 285 285 286 286 285 285 284 284 284 284 287 284 283 283 282 282 282 282 282 283 282 283 283 283 283 283 283 284 284 284 284 284 285 287 289 294 297 302 304 305 305 305 305 307 309
297 296 296 296 296 296 297 297 298 298 299 299 298 297 296 295 294 293 293 294 293 293 292 291 291 291 291 291 290 290 290 289 289 288 287 287 286 285 284 284 285 285 285 285 284 284 284 284 283 282 282 282 282 285 282 282 282 283 282 283 282 284 282 282 283 283 283 283 284 283 284 284 285 287 287 285 290 296 301 302 303 303 304 306 307
297 297 297 296 295 295 296 296 296 297 297 298 298 297 295 294 294 294 292 293 293 292 292 292 291 290 291 291 290 290 290 289 288 288 287 286 286 285 284 284 285 285 284 284 284 284 284 284 283 282 282 282 282 281 282 282 282 282 282 282 282 285 282 282 283 283 284 282 283 283 284 284 285 286 288 284 285 290 296 298 300 301 302 304 304
298 297 297 295 295 295 295 295 295 296 296 297 297 296 294 293 292 292 292 292 292 292 292 291 290 290 290 290 290 290 289 289 288 288 288 286 286 285 284 284 285 284 284 283 283 284 283 283 282 283 281 281 281 281 281 282 282 281 281 281 282 283 281 282 283 284 284 282 282 282 283 282 286 287 283 283 285 285 290 294 296 297 297 301 302
298 298 297 296 295 295 295 295 295 296 296 296 296 295 294 292 292 291 292 292 292 292 291 290 290 290 289 290 290 290 290 288 288 288 287 287 286 285 284 284 284 283 283 283 283 283 282 282 282 281 281 281 280 280 281 281 282 282 281 281 281 281 281 281 284 287 281 282 282 282 282 281 282 282 283 283 283 283 283 287 291 291 292 297 299
298 297 297 297 296 295 294 295 295 295 295 296 296 295 292 291 289 290 290 290 291 290 290 289 290 290 290 290 289 290 290 288 288 288 287 287 285 285 284 283 284 283 283 283 282 283 282 281 282 281 282 281 280 280 280 281 281 281 281 280 280 280 281 284 282 281 281 281 285 284 283 282 281 282 282 282 282 282 282 282 282 282 284 293 296
298 297 297 296 295 294 294 294 295 294 295 295 295 294 292 291 290 288 288 290 290 290 289 290 289 290 290 290 289 289 290 288 288 287 287 286 285 285 284 283 283 283 283 282 282 282 281 281 281 282 281 281 281 280 280 281 279 280 282 280 280 281 283 283 281 280 281 280 281 282 282 282 281 282 282 282 282 282 282 282 284 281 283 287 292
296 296 296 296 295 295 293 293 294 294 294 294 294 293 291 290 290 289 290 290 290 290 290 290 289 290 290 290 289 290 289 288 288 287 286 287 285 284 283 283 283 283 283 283 283 282 281 282 283 282 280 279 280 279 279 279 279 279 278 279 280 281 285 282 280 280 280 280 280 280 281 281 281 281 281 282 281 282 282 282 282 282 283 282 284
295 295 296 296 296 295 294 294 294 294 294 294 294 294 293 293 292 291 291 291 290 290 289 290 290 290 289 289 289 289 289 288 288 287 286 286 285 284 283 283 283 283 283 282 281 283 282 282 282 279 279 278 279 279 280 278 279 278 279 280 278 279 282 280 281 279 280 280 280 280 281 281 281 280 281 281 281 281 281 282 282 282 282 282 282
296 296 296 296 295 294 294 294 294 294 294 294 294 294 294 294 293 292 292 291 291 291 291 291 290 289 288 288 289 288 288 288 287 287 286 286 285 284 284 283 283 283 282 282 282 281 281 282 281 281 279 279 280 281 279 278 278 278 278 279 278 279 282 278 277 279 280 280 280 280 281 280 280 280 281 280 280 280 281 282 281 281 282 282 282
295 294 295 295 296 295 294 294 294 294 294 294 295 294 294 292 291 289 290 289 289 289 289 288 288 288 287 288 288 288 288 288 287 287 286 286 285 285 284 283 283 283 283 282 281 281 281 281 280 281 281 279 278 279 281 279 277 279 281 277 276 278 278 278 276 278 278 279 279 279 280 280 279 280 280 280 280 280 280 281 281 281 281 281 281
294 295 295 295 296 295 295 294 294 293 294 294 294 293 292 290 288 287 288 286 286 287 286 285 287 288 288 287 287 288 288 287 287 287 287 285 285 285 284 283 283 282 282 282 282 282 282 282 281 280 280 280 278 277 280 279 278 281 280 276 276 278 277 276 276 276 277 278 279 278 282 280 279 281 278 279 279 279 280 280 280 280 280 281 281
294 295 296 296 296 295 295 294 294 293 293 293 294 293 292 291 289 288 287 287 287 286 287 287 286 287 288 288 287 287 287 287 287 286 286 286 284 284 284 283 282 282 282 282 282 280 281 281 281 281 279 279 280 278 277 280 279 280 277 276 278 281 276 275 277 278 277 278 277 278 279 278 278 278 278 278 278 278 281 280 279 280 280 280 280
295 295 294 295 295 295 294 294 294 293 293 293 293 293 291 291 290 290 290 289 289 288 289 289 288 288 289 288 288 287 287 287 286 286 286 286 285 284 284 283 283 282 283 281 281 281 281 282 281 280 279 281 279 278 278 278 277 278 278 278 279 278 277 277 275 276 276 276 276 277 277 277 277 278 278 278 278 278 278 279 279 279 279 279 279
294 293 294 294 294 294 293 293 293 293 293 293 293 293 292 291 290 290 290 290 290 290 289 289 289 289 288 288 287 286 286 287 286 286 286 285 285 284 283 283 283 282 282 281 282 281 281 281 281 280 279 280 280 280 278 278 278 278 279 278 278 278 276 276 276 275 276 274 275 276 276 276 276 277 278 278 277 277 277 278 278 278 278 279 279
292 293 294 294 294 293 292 292 293 292 292 292 292 292 292 292 291 291 290 291 290 289 288 289 288 288 287 287 286 286 286 286 286 286 285 285 285 284 283 283 283 282 283 282 281 281 280 281 280 279 279 279 279 279 279 278 278 278 277 276 276 276 276 276 276 276 275 274 274 275 275 275 276 277 277 277 277 278 278 278 278 279 280 280 279
292 292 291 291 292 292 291 291 292 292 292 292 292 292 292 292 290 290 290 290 289 287 287 287 287 286 286 286 286 285 285 285 285 285 285 284 284 283 283 283 282 282 283 281 280 280 280 280 281 280 279 279 278 279 279 278 278 278 279 278 276 275 275 275 275 275 275 275 276 274 275 275 275 275 277 277 277 277 278 278 277 277 278 278 278
288 289 290 290 291 291 291 291 291 292 291 291 292 291 292 291 291 291 290 290 289 287 286 286 286 284 286 285 285 286 285 285 285 284 284 284 284 283 283 283 282 283 283 281 280 280 280 280 280 279 279 279 278 278 280 278 278 278 277 278 278 278 277 275 275 275 275 274 274 274 274 275 274 275 275 276 278 277 277 277 277 276 277 277 278
Wind_Speed
8 8 6 7 8 12 13 14 14 15 14 14 13 12 11 10 9 9 9 9 9 9 8 8 8 8 8 8 8 8 8 9 9 9 9 8 8 8 8 7 7 7 7 8 9 11 11 12 12 12 13 13 14 15 15 15 16 15 14 14 13 13 14 14 14 14 14 14 13 13 12 11 10 8 10 11 11 11 11 11 9 5 4 7 11
14 9 6 5 11 13 13 14 14 14 15 14 14 13 12 12 10 10 9 9 9 9 9 9 9 8 9 9 9 9 8 10 10 10 9 9 9 9 9 9 9 8 8 9 10 11 12 13 14 15 15 15 17 16 16 16 15 15 14 13 12 13 13 14 14 14 14 14 14 12 12 12 12 8 8 11 11 11 10 11 10 5 4 10 11
7 6 5 6 11 12 13 14 14 14 14 14 14 13 13 12 12 11 11 10 10 10 10 9 9 9 9 10 9 10 10 9 9 9 8 9 9 10 10 10 10 9 9 9 10 12 13 14 14 15 15 15 15 15 15 15 14 13 12 13 13 13 14 14 14 14 14 14 13 12 13 12 12 12 8 10 10 10 9 10 10 8 7 11 10
9 6 5 8 10 10 12 13 14 14 14 14 13 12 12 12 12 12 11 11 11 11 11 10 10 10 10 10 10 10 8 8 9 8 7 6 7 8 9 10 10 10 10 9 10 12 14 13 14 14 15 14 13 14 13 13 13 13 13 13 14 14 14 14 14 14 13 13 13 11 6 6 7 11 9 8 9 9 8 9 10 11 12 12 12
7 6 5 5 7 9 11 13 14 13 13 13 13 12 12 12 11 11 11 11 11 11 11 11 10 10 11 10 9 9 8 8 8 8 7 5 6 6 6 7 9 10 10 11 12 14 14 13 14 14 14 14 14 14 14 13 14 14 14 14 14 14 14 14 14 13 12 12 12 8 6 6 5 9 10 7 8 8 8 10 11 12 12 12 12
7 6 5 6 5 7 10 12 14 14 13 13 13 13 12 12 12 11 11 10 11 11 11 10 9 9 8 7 8 7 7 7 8 7 6 5 5 5 5 7 8 8 11 12 13 13 13 13 13 13 13 14 14 14 14 14 14 14 14 14 14 14 14 14 13 13 12 12 11 6 6 5 5 5 11 7 7 7 8 10 11 11 11 12 12
7 5 5 5 5 6 10 13 15 14 14 13 13 13 11 11 11 11 11 11 10 10 8 8 8 7 7 7 6 6 6 6 6 6 6 5 5 5 5 9 9 8 9 11 13 13 12 12 12 13 13 13 14 14 13 14 14 14 14 14 14 14 14 14 13 13 12 8 6 5 5 5 5 4 9 9 7 9 11 11 11 11 11 11 12
4 4 4 4 4 6 10 13 14 13 13 11 11 11 11 11 9 10 10 10 9 10 9 8 8 7 7 7 6 6 7 7 7 6 6 6 7 8 9 9 9 8 9 8 12 12 11 12 12 12 13 13 14 13 13 14 14 14 14 14 14 14 14 14 13 12 12 6 5 5 5 5 5 4 8 10 8 10 11 12 11 10 10 12 8
7 5 4 4 4 6 8 10 13 14 13 13 12 11 9 10 10 11 10 10 10 10 11 9 9 8 7 8 8 8 7 7 6 6 7 7 9 11 11 11 10 10 11 11 11 11 11 11 12 12 13 13 13 13 13 14 14 14 14 14 14 14 14 14 13 12 8 5 5 5 6 6 5 5 8 9 8 11 11 9 9 11 12 11 10
5 4 4 4 4 5 7 9 15 14 14 14 12 12 11 11 11 11 11 10 11 10 11 10 9 10 8 8 7 8 8 7 8 7 8 8 9 11 11 11 11 11 11 11 11 11 12 12 12 12 13 13 13 13 13 14 14 14 14 14 14 14 14 13 13 10 6 5 5 6 6 9 5 6 5 9 10 11 11 10 7 7 8 10 11
5 5 4 4 4 5 6 9 9 12 13 12 13 11 11 11 11 12 12 12 12 11 9 9 9 9 9 8 9 8 8 9 8 9 8 9 10 10 11 11 11 11 11 12 12 12 12 12 12 12 12 13 13 13 13 14 14 14 14 14 14 14 14 13 10 6 6 6 6 6 7 11 6 4 12 13 14 15 14 12 11 10 12 13 13
6 4 4 4 5 6 7 9 12 14 12 11 10 11 12 11 12 12 11 10 10 10 10 10 10 9 9 9 8 9 9 9 9 9 9 10 11 11 11 11 11 11 11 12 12 12 12 12 12 12 13 12 13 13 13 13 14 14 14 14 14 13 13 13 7 6 5 6 6 6 6 7 7 7 14 14 14 14 14 13 15 15 15 15 15
6 5 4 3 4 6 8 11 9 11 12 12 13 13 12 12 12 12 12 12 12 11 11 11 10 9 9 9 9 10 10 10 10 10 10 10 11 11 11 12 12 11 12 12 12 12 12 13 13 13 13 13 13 13 13 13 13 14 14 14 14 13 12 12 5 6 5 5 5 6 6 6 5 12 11 13 13 13 14 14 15 15 15 16 15
6 5 4 4 4 7 10 10 10 12 13 14 14 14 14 13 14 13 13 13 13 13 13 12 11 11 11 10 11 11 11 10 10 10 10 10 11 11 11 11 12 12 12 12 12 12 12 13 13 13 13 13 13 13 13 13 13 14 14 14 14 13 12 9 7 5 5 5 5 6 6 6 5 12 10 12 11 13 14 14 15 15 14 15 15
6 5 4 4 4 5 10 9 10 11 12 15 15 14 14 14 15 15 14 14 14 13 13 13 12 12 12 12 12 11 11 11 10 10 10 10 10 11 11 11 11 12 12 12 12 12 12 13 13 13 13 13 13 13 13 13 14 14 14 14 14 13 12 5 5 5 5 5 5 5 6 5 9 12 11 12 11 12 13 13 13 13 13 14 14
5 4 3 3 4 4 5 6 10 10 11 12 13 14 15 15 15 15 15 15 14 14 14 14 13 13 13 13 12 12 12 12 11 11 11 11 11 11 11 11 11 12 12 12 12 12 12 13 13 13 13 13 13 13 13 14 14 14 14 14 14 14 12 7 6 5 5 5 5 5 6 6 11 11 11 10 11 11 11 12 12 13 13 13 14
4 5 4 4 4 4 4 3 6 9 10 10 11 12 13 15 16 16 15 15 15 14 14 14 14 13 14 13 13 13 13 12 12 12 12 12 12 11 12 12 12 12 12 13 12 13 13 13 13 13 13 13 13 13 13 14 14 14 14 14 14 14 13 9 6 5 5 5 4 5 6 5 9 11 11 10 11 11 11 12 12 12 12 13 12
4 4 6 5 5 4 4 4 5 5 5 7 9 11 11 13 15 14 14 15 15 15 14 14 14 14 14 14 14 13 13 13 13 13 13 13 12 12 12 13 13 12 13 13 13 13 13 13 13 13 13 13 13 13 14 14 14 15 14 14 14 14 12 10 6 5 5 5 6 5 5 9 12 10 11 11 11 11 11 11 11 11 11 10 10
4 4 4 5 6 4 5 5 4 4 5 4 4 7 10 11 11 11 12 15 14 13 13 13 13 13 14 13 12 11 11 13 13 13 14 13 13 12 13 14 14 13 13 13 13 13 13 13 13 13 13 13 14 14 14 14 14 15 15 14 14 13 13 7 5 6 5 5 5 6 5 12 11 11 10 11 11 11 11 11 11 11 10 10 10
4 5 5 6 6 6 5 5 5 5 4 4 5 5 8 10 10 11 12 13 12 12 12 12 11 11 11 11 11 8 8 7 10 8 11 11 9 8 13 14 14 14 14 14 14 13 13 13 13 13 13 13 13 14 14 14 14 14 14 13 12 11 7 6 5 6 6 6 5 5 8 12 12 10 9 10 10 11 11 11 11 10 10 10 10
4 6 6 7 6 7 6 6 5 6 5 5 6 6 6 9 9 10 11 11 11 11 11 10 10 10 9 9 9 7 5 5 6 5 8 5 9 10 12 14 14 14 14 14 14 13 13 14 14 14 14 14 13 13 13 13 13 13 12 11 10 6 5 5 6 5 5 5 6 5 12 11 11 11 10 9 10 10 10 10 10 10 10 10 10
8 7 7 7 8 7 8 7 6 7 6 6 5 5 5 7 6 6 6 8 9 10 8 7 7 6 9 7 5 6 6 5 5 6 5 5 7 10 11 13 13 13 13 13 13 13 13 13 14 14 14 13 12 6 6 9 12 11 11 10 6 5 5 5 5 5 5 5 5 7 12 12 11 11 10 10 10 10 10 10 10 10 10 10 10
9 9 9 10 8 7 7 9 8 7 6 6 5 5 6 5 5 6 5 7 7 6 7 7 6 6 5 6 5 5 5 4 4 5 5 8 7 10 10 12 13 13 13 14 13 13 13 13 14 13 13 12 7 6 5 5 5 8 7 5 5 5 4 5 4 5 5 3 4 9 11 12 11 11 10 10 10 10 10 10 10 10 10 10 10
12 11 10 6 7 9 10 8 8 7 8 6 6 6 5 5 6 6 6 6 6 6 6 6 6 6 6 6 6 5 5 6 6 8 7 5 6 8 10 10 11 11 11 8 11 12 13 14 14 12 8 5 5 5 5 4 5 4 4 4 5 4 4 4 4 4 5 4 4 11 11 11 11 10 10 10 10 10 10 10 10 10 10 11 11
10 5 5 10 12 10 8 8 7 7 8 7 7 7 6 6 6 6 6 6 6 6 6 6 6 7 6 6 6 5 5 5 4 4 6 5 5 5 5 5 5 5 8 6 6 6 6 6 6 6 5 5 5 4 3 5 3 3 4 4 4 3 4 4 4 4 4 5 4 11 11 10 10 10 10 10 9 9 9 10 10 10 10 10 11
5 8 13 10 11 10 9 7 7 8 8 8 8 7 7 7 7 6 6 6 7 6 6 6 6 7 6 6 6 6 6 6 5 5 5 5 5 5 5 6 5 5 4 6 6 6 6 5 6 6 4 4 5 4 3 3 4 4 4 4 4 4 4 4 3 4 4 5 5 11 10 10 10 10 9 9 9 9 9 9 9 9 9 9 10
10 13 9 8 9 9 10 9 10 8 9 7 6 6 7 7 6 6 7 6 6 7 6 6 7 7 6 7 8 7 6 6 6 5 5 5 6 6 6 5 6 6 4 7 6 5 6 6 6 5 4 4 4 3 3 3 3 4 4 4 4 4 4 4 3 4 4 4 5 11 10 10 10 10 10 9 9 9 9 9 9 9 9 9 10
5 10 9 10 10 14 12 10 10 10 9 8 8 7 6 7 7 6 6 7 7 7 7 7 6 7 6 7 6 7 8 7 6 6 6 4 5 4 5 5 6 6 4 6 7 5 5 5 4 4 4 3 4 3 3 3 3 3 4 3 3 4 4 4 4 3 4 5 4 8 11 11 11 11 10 10 10 9 9 9 9 9 9 10 10
12 11 10 11 13 12 12 13 12 12 9 9 9 8 7 7 7 7 8 7 7 7 7 6 7 6 6 7 6 7 6 6 7 6 5 6 4 5 5 5 5 5 5 5 5 6 5 4 4 3 3 3 3 3 3 3 3 3 4 3 3 3 3 3 3 3 4 4 4 6 11 11 11 11 11 11 10 10 10 10 9 9 10 10 9
17 11 11 12 9 10 14 16 15 13 11 10 9 8 9 9 8 8 8 7 7 7 6 7 7 7 7 6 7 7 8 8 7 6 7 6 5 4 5 5 5 5 5 6 3 6 6 4 4 3 4 3 3 2 2 3 3 3 4 3 3 3 2 3 3 3 3 3 4 4 9 11 11 12 12 12 12 11 11 11 10 10 10 10 9
9 13 12 11 9 11 14 14 13 11 10 11 10 10 9 10 9 8 7 8 8 7 7 7 7 7 7 7 6 6 7 7 7 7 6 6 5 5 5 4 5 4 4 5 3 4 5 5 5 5 4 4 4 2 2 4 4 4 3 3 3 2 2 2 2 2 3 3 4 4 4 9 11 12 12 12 12 12 11 11 12 11 11 11 11
12 16 13 9 10 14 14 13 14 13 12 12 11 11 11 11 9 8 9 8 7 8 7 7 8 7 7 7 7 7 7 6 7 7 6 6 6 6 5 5 5 5 4 5 5 4 4 3 3 3 3 3 4 3 2 3 3 4 3 3 2 3 3 2 3 3 3 3 3 4 4 4 9 11 11 12 11 12 11 12 12 12 12 12 11
14 14 11 10 15 13 13 14 14 13 14 15 14 12 10 9 10 10 9 8 8 7 8 8 8 7 7 8 7 7 6 8 7 8 7 6 6 6 5 5 5 5 4 4 5 4 4 4 3 3 3 3 3 2 2 2 4 3 3 3 2 3 2 3 3 3 3 3 4 4 5 4 4 7 10 11 11 12 11 12 12 12 12 12 11
11 9 9 15 13 8 10 9 13 15 16 14 12 11 11 10 9 9 9 9 8 9 9 7 8 8 8 8 8 8 7 7 8 7 6 6 6 6 6 5 5 4 4 5 5 5 5 5 5 4 3 3 4 2 2 2 2 2 3 2 2 2 2 3 3 3 3 4 3 4 5 5 5 5 5 9 12 12 12 12 11 11 12 11 11
9 9 15 18 12 13 10 10 14 16 15 15 15 14 11 11 10 10 9 10 9 9 8 7 7 8 8 8 8 8 7 8 7 8 7 7 7 6 6 6 5 4 5 5 5 5 5 5 5 6 3 3 3 2 2 2 2 4 3 2 3 2 3 3 3 3 4 3 4 4 5 5 5 5 5 6 7 12 14 13 12 13 13 12 11
15 16 14 9 14 13 13 13 13 16 17 17 16 14 13 11 10 9 9 9 9 9 9 9 8 7 8 8 8 8 8 8 8 8 8 7 7 7 6 5 5 5 5 5 5 6 5 5 3 5 6 2 3 2 1 2 2 3 2 2 2 2 3 2 3 3 3 3 4 4 4 4 4 4 5 5 5 7 14 14 14 14 14 13 12
16 14 14 13 14 14 15 16 17 19 18 16 13 11 10 11 11 11 11 10 10 10 9 8 8 8 8 8 8 9 8 8 8 8 8 8 7 6 6 6 5 6 6 6 5 5 6 5 3 1 2 5 3 3 1 1 2 2 2 3 2 2 3 2 2 3 2 4 4 3 3 3 3 4 5 5 5 5 8 13 13 13 14 15 13
14 15 15 16 17 15 15 16 14 14 13 14 13 12 10 9 8 8 8 10 10 9 8 8 9 9 8 9 9 9 9 9 9 8 7 7 7 6 6 6 6 6 6 5 6 4 3 4 5 2 3 5 4 4 2 1 1 3 3 3 3 3 2 2 2 2 4 4 4 4 3 3 4 4 5 4 4 5 5 8 12 12 14 15 15
12 14 13 13 10 11 12 13 13 13 13 12 11 9 7 5 4 5 6 7 7 7 7 8 8 8 9 10 10 10 9 9 9 9 9 8 7 7 7 6 6 6 6 6 5 5 4 3 5 4 2 3 5 3 2 2 2 3 4 3 3 3 1 1 2 4 4 3 3 3 3 5 4 4 5 5 5 5 6 6 6 6 7 14 15
11 11 12 12 13 10 10 11 12 12 11 10 10 9 8 9 10 6 6 8 8 8 7 9 8 10 11 11 10 10 10 10 10 9 9 9 8 8 8 7 7 7 8 8 8 8 9 7 6 7 6 3 2 2 1 3 3 5 4 4 3 3 3 2 3 3 3 3 3 4 5 4 6 5 6 5 5 5 5 5 5 6 5 8 13
10 10 12 14 14 15 14 16 14 13 13 13 13 13 14 11 8 12 14 12 12 11 10 10 11 11 11 11 11 10 10 10 10 10 10 9 8 7 7 7 7 8 8 9 8 7 6 6 7 3 5 3 1 0 1 2 5 3 2 4 5 3 2 1 3 3 3 3 3 5 5 5 5 5 4 5 5 5 5 5 5 5 6 5 6
11 12 16 17 16 15 16 15 11 13 15 16 15 14 15 17 18 19 16 14 13 13 13 11 13 11 11 10 10 10 11 11 10 10 10 10 9 9 9 10 9 8 7 4 5 5 5 6 7 4 1 3 2 1 0 2 3 2 3 0 3 3 2 1 0 1 3 3 3 5 5 5 4 4 4 5 5 5 5 5 5 6 5 5 5
13 16 17 13 13 13 15 13 13 15 15 15 13 15 13 12 12 8 11 9 9 9 9 10 9 10 10 11 10 10 10 10 11 11 11 10 10 10 10 9 10 8 8 8 7 8 8 9 9 8 5 2 1 1 0 1 4 2 2 3 0 1 0 0 2 2 1 0 2 3 3 3 3 3 3 4 5 5 5 5 6 6 6 6 5
9 10 11 15 13 14 15 15 15 15 14 15 15 12 10 6 4 2 4 5 6 4 5 5 7 7 9 10 10 11 11 11 10 11 10 10 11 11 9 9 10 9 10 10 10 10 9 8 7 5 8 4 1 2 1 0 4 7 1 1 1 0 2 1 3 3 1 0 1 2 1 2 1 3 4 4 3 4 5 5 5 5 5 6 5
11 13 13 14 13 18 17 16 14 15 13 14 14 10 9 7 6 5 5 5 4 6 5 6 9 9 8 10 12 10 12 12 12 13 12 12 11 10 11 10 10 10 8 9 10 12 12 10 9 8 9 9 6 2 0 2 2 2 6 4 2 1 3 1 0 3 2 2 0 0 0 0 1 1 2 1 1 2 3 4 4 4 5 5 5
11 13 11 14 12 12 12 13 11 12 13 14 15 13 13 14 12 11 10 10 10 10 15 18 12 14 16 10 9 13 13 12 11 12 12 11 12 12 11 11 10 10 9 10 8 6 8 9 11 10 8 4 8 6 3 1 2 3 1 1 1 2 4 2 1 2 2 0 1 1 2 1 1 1 1 0 1 2 2 4 3 4 4 5 4
13 7 7 9 10 10 12 14 14 12 13 13 16 13 13 13 17 18 17 18 18 15 12 8 12 11 8 12 12 10 11 13 12 12 12 12 11 11 11 11 10 10 9 8 9 11 10 10 7 7 8 6 7 6 9 6 2 2 3 3 4 3 4 6 4 2 2 1 1 1 1 0 0 1 1 1 1 1 3 2 3 3 4 3 4
9 6 8 8 12 12 11 13 11 11 12 12 15 15 15 15 15 15 14 14 15 13 11 11 10 9 11 11 10 10 11 11 12 12 12 12 12 11 11 11 11 10 10 10 11 9 7 4 6 5 4 6 8 9 7 8 9 4 2 4 4 4 4 5 3 5 3 1 2 1 0 2 1 3 3 3 3 2 3 3 3 3 3 3 3
5 8 9 9 9 9 10 11 12 12 12 15 16 16 15 15 15 14 13 13 11 7 7 6 8 9 11 8 9 10 10 11 11 12 12 12 12 12 12 11 11 11 10 9 7 8 10 10 9 8 8 7 6 5 9 9 6 8 7 2 4 5 4 4 3 3 4 4 5 3 4 3 2 4 3 2 2 1 2 4 4 3 1 3 3
5 5 5 4 6 7 10 12 14 12 12 15 15 16 16 13 14 15 17 13 9 6 8 9 9 9 11 10 10 9 10 10 10 10 11 12 12 11 12 13 12 11 10 10 9 9 9 9 10 10 8 8 5 6 9 8 6 7 8 9 6 4 4 2 1 2 1 1 5 4 1 3 5 3 3 2 1 3 5 6 5 2 0 1 2
4 4 5 5 6 8 9 12 13 11 13 16 17 18 17 15 16 17 18 16 14 11 10 11 9 9 12 12 11 10 9 11 10 10 12 11 12 12 12 12 11 10 11 10 11 11 10 9 9 7 8 9 8 7 4 5 6 7 7 9 10 11 10 7 8 6 5 3 1 6 3 4 4 6 2 0 2 6 6 5 4 2 0 1 2
Wind_Direction
232 198 192 197 189 184 180 177 175 171 172 175 173 170 170 172 168 168 170 164 163 162 163 163 160 158 152 146 142 138 132 126 119 113 106 101 102 98 92 87 87 84 86 83 83 78 74 74 73 70 65 65 63 60 58 56 53 56 53 48 39 29 28 27 22 20 19 18 19 24 24 24 25 32 64 70 67 60 55 49 47 35 35 32 35
180 195 182 188 186 184 180 174 174 172 171 171 171 168 168 166 166 166 167 163 164 161 161 161 156 156 152 145 139 128 121 116 110 104 97 97 94 93 91 90 86 85 87 86 88 83 76 70 63 59 55 52 53 52 52 52 52 50 48 47 41 34 29 28 25 21 20 19 17 17 17 17 12 36 60 73 67 60 56 52 47 40 22 35 35
151 164 177 182 185 184 176 174 169 170 171 168 167 168 167 165 162 162 168 165 162 158 158 155 153 151 143 137 132 124 118 109 101 89 86 83 82 80 79 81 76 76 84 91 89 84 77 69 63 59 54 52 51 51 49 50 50 50 49 46 42 36 31 28 26 23 21 19 18 14 13 10 4 14 67 71 66 60 57 54 48 41 31 35 35
151 174 164 179 182 183 175 174 170 167 167 166 163 162 160 161 158 160 161 160 157 153 149 146 145 141 133 128 122 111 112 105 88 84 85 81 75 69 72 72 74 75 75 81 82 78 70 65 60 58 56 56 57 57 56 53 51 48 46 42 39 36 32 29 26 25 24 19 17 19 15 4 356 357 53 61 65 60 56 52 48 41 37 36 34
154 167 165 174 177 182 177 171 169 166 164 161 158 156 156 154 154 154 156 153 151 144 140 138 135 134 130 126 118 113 102 88 90 90 85 89 87 77 71 69 67 69 69 70 73 70 66 63 62 59 57 56 56 55 54 52 49 46 42 37 35 32 31 30 28 27 25 21 20 21 8 4 355 342 7 61 59 61 55 51 48 42 39 38 35
156 169 164 170 173 181 171 169 166 163 162 157 157 156 153 154 152 150 149 148 146 148 145 146 146 140 136 127 122 116 110 102 93 86 88 89 93 93 97 81 69 57 60 66 66 64 64 62 64 63 60 58 58 56 52 50 48 45 41 38 36 33 32 31 32 32 27 22 20 13 4 0 356 343 346 36 62 61 52 49 49 46 39 35 34
157 164 162 166 167 178 167 169 167 162 161 160 160 158 157 157 158 157 158 156 150 151 153 150 157 157 149 141 140 128 129 121 107 108 98 105 111 125 118 88 76 70 66 63 68 69 69 67 65 65 64 61 60 58 55 52 51 48 44 43 41 40 38 36 35 35 34 29 12 6 356 356 355 342 335 20 52 56 49 47 46 44 40 36 32
157 161 165 163 164 176 163 170 168 167 168 169 172 167 171 171 174 176 175 169 168 167 166 160 165 168 166 158 158 140 136 128 127 131 113 122 122 112 101 99 94 93 85 77 74 72 72 70 69 68 67 64 61 60 58 57 54 52 50 47 45 45 43 40 38 37 37 31 17 4 352 354 349 345 323 30 50 53 48 45 41 36 36 37 32
168 171 160 161 172 168 180 173 174 178 181 183 187 184 179 184 186 195 189 192 185 189 192 178 183 178 185 160 156 166 160 154 150 139 138 143 114 100 99 99 101 98 93 88 83 80 76 75 75 74 71 67 64 62 60 58 57 54 52 50 50 48 47 44 40 39 32 25 14 6 352 356 350 336 319 29 43 53 47 41 32 29 25 25 27
171 166 159 159 171 173 178 185 185 179 185 188 187 190 192 190 192 195 203 196 198 188 201 191 192 201 171 179 175 165 171 160 147 153 156 128 112 106 102 101 101 98 96 93 91 87 86 83 81 78 76 73 69 67 64 62 59 55 53 52 51 50 48 45 42 38 34 22 16 10 357 1 345 343 337 33 50 45 48 44 42 41 36 31 31
168 172 162 161 175 173 170 178 174 180 192 191 188 184 199 198 194 203 195 201 195 201 198 196 193 193 187 187 178 174 167 162 161 161 144 121 115 111 107 104 101 98 97 96 95 94 93 89 85 82 78 75 73 71 67 64 61 59 56 55 53 50 49 45 43 35 30 25 19 14 354 359 357 325 40 48 54 55 53 53 52 48 48 44 44
173 173 169 166 174 175 172 179 189 196 183 190 194 185 195 199 201 203 200 194 194 193 187 183 183 177 170 168 168 168 158 160 159 149 130 122 117 113 110 108 104 102 102 100 99 99 96 94 91 86 82 79 76 73 70 67 64 62 60 58 56 53 49 47 44 34 31 22 23 11 359 356 348 15 36 44 48 47 45 47 44 41 40 40 37
175 172 173 170 174 180 176 180 202 196 191 189 196 196 195 196 195 196 192 188 188 185 180 179 173 166 163 161 159 160 162 158 148 136 129 122 118 116 115 111 107 107 106 103 101 101 99 96 93 90 86 83 79 75 72 70 69 65 62 60 57 54 51 51 43 37 32 22 20 9 3 355 343 27 36 37 41 42 39 36 37 35 33 35 33
168 174 175 175 174 185 184 190 194 189 191 192 196 196 195 193 193 192 190 186 184 180 176 173 166 165 164 162 161 161 154 146 139 133 128 123 120 119 116 113 112 111 107 104 102 101 99 96 94 91 88 84 81 78 75 72 70 67 65 61 58 55 52 47 45 39 34 25 10 8 1 353 351 32 35 38 36 38 41 35 38 33 33 34 33
167 175 177 174 179 185 191 193 186 187 191 191 192 191 192 191 190 190 187 184 181 177 175 169 166 164 163 161 156 152 147 142 135 129 124 122 119 117 115 113 111 109 106 104 102 99 95 92 89 88 85 83 80 78 75 72 68 66 64 62 58 54 53 46 43 36 33 26 10 6 358 344 12 31 34 37 33 36 36 38 36 35 34 35 33
163 171 172 183 189 186 189 207 185 184 185 188 190 191 191 190 189 188 185 182 179 175 171 170 164 161 159 156 154 149 145 140 136 131 127 122 119 116 114 110 107 105 102 99 96 94 92 89 87 85 84 82 80 77 74 71 68 65 62 59 56 53 51 49 41 34 28 25 12 8 352 339 11 30 35 35 33 36 36 35 35 33 33 37 35
163 163 168 191 195 195 192 211 187 180 182 191 190 189 190 190 188 187 184 181 178 174 171 165 162 160 157 155 152 147 143 140 137 134 130 125 122 118 114 111 106 104 100 97 94 90 88 87 85 82 81 80 78 75 72 70 67 64 60 56 53 51 48 44 41 30 22 27 18 3 347 330 13 29 33 34 35 37 35 34 34 34 34 35 33
171 170 182 186 194 195 196 200 184 173 178 193 191 183 186 187 188 186 182 181 178 174 167 164 162 160 154 151 147 145 143 141 139 137 134 129 125 122 120 116 111 106 101 98 95 93 91 88 86 83 80 78 76 74 70 67 64 62 58 53 50 47 44 42 40 25 19 24 16 355 340 3 18 31 32 33 35 36 36 37 37 38 37 38 37
181 188 193 185 197 189 195 191 183 164 178 183 183 180 182 186 183 179 177 180 177 169 166 163 161 157 152 146 144 142 141 140 138 138 135 133 130 126 126 122 119 113 108 104 100 98 96 93 89 86 82 77 75 72 68 65 61 58 53 49 44 40 39 37 32 25 19 15 10 1 335 16 17 28 32 34 34 33 33 34 36 36 38 38 38
198 203 203 204 193 189 191 189 178 170 177 175 177 169 177 177 178 174 173 177 171 167 162 161 149 142 138 138 137 130 118 115 119 125 131 126 122 129 130 127 123 119 115 112 109 106 102 98 94 90 84 78 72 68 67 66 63 59 55 50 45 39 34 29 24 24 15 10 8 339 7 18 18 26 32 36 36 32 32 33 34 33 34 35 37
225 218 208 203 199 191 192 184 185 172 175 174 174 170 179 175 177 172 173 171 167 161 161 137 126 122 119 120 116 114 116 112 107 113 113 117 124 126 128 127 123 120 117 115 112 109 106 101 97 91 87 80 71 63 59 64 62 60 57 54 50 44 36 35 28 20 16 3 3 332 19 20 19 23 29 35 37 33 35 32 32 33 33 35 37
205 214 218 207 197 200 191 186 183 181 173 175 173 170 179 171 168 170 169 169 163 158 136 132 129 131 129 122 125 127 127 128 130 126 123 119 117 120 124 125 122 118 116 113 111 107 103 100 95 91 85 79 73 65 54 52 56 58 56 55 48 44 36 36 38 27 18 358 356 355 20 23 22 22 27 31 36 34 35 34 34 34 33 37 38
214 213 212 204 201 194 194 191 187 177 174 176 174 173 176 164 170 167 167 161 150 134 140 136 138 140 136 136 132 131 135 137 136 134 132 126 120 118 122 124 121 117 116 111 107 102 98 95 90 85 77 69 64 62 61 60 51 51 53 50 54 44 40 38 39 33 18 356 337 13 19 25 26 22 27 31 35 33 32 34 36 36 35 38 39
215 206 200 192 198 201 198 191 183 176 174 179 173 176 174 167 170 167 163 152 140 144 141 144 146 148 149 145 139 140 137 143 147 136 125 116 111 100 97 93 91 82 78 74 79 85 85 84 85 80 71 69 70 65 68 64 63 59 55 54 54 44 43 39 36 27 15 1 339 21 20 25 29 27 29 35 36 34 33 36 39 39 39 38 39
205 173 179 201 201 199 190 193 183 178 178 179 177 181 173 167 173 169 162 154 147 146 149 150 155 156 155 149 146 140 141 137 126 118 113 112 102 97 94 101 101 98 99 97 94 89 85 85 78 80 84 88 86 78 85 76 67 64 62 53 55 50 45 38 31 24 10 360 345 22 22 25 31 30 32 38 40 39 39 40 40 41 41 42 41
166 188 206 199 198 197 192 187 182 186 187 181 183 176 164 177 178 174 162 162 156 156 155 158 161 164 159 151 143 137 140 134 134 134 128 126 122 125 127 129 122 121 126 115 110 109 99 99 100 94 87 87 87 84 71 80 75 64 59 50 48 46 42 37 30 22 9 359 348 14 23 25 30 34 35 40 43 42 47 46 49 45 46 47 45
198 211 197 201 191 193 193 182 191 185 191 181 175 175 186 183 176 173 166 175 165 162 169 167 171 167 161 157 149 152 149 148 146 146 145 143 141 144 139 137 129 123 125 117 108 103 107 105 103 103 103 96 89 84 79 71 70 74 64 57 47 44 38 31 24 20 9 3 353 4 21 26 30 35 38 41 46 45 50 50 51 53 52 50 50
202 216 200 197 193 196 190 186 192 185 188 181 180 185 184 180 182 175 179 173 168 178 176 176 168 170 165 164 156 157 157 157 158 155 159 150 153 141 134 123 119 123 122 118 118 107 102 100 103 98 94 85 90 75 72 66 64 68 74 59 52 42 36 24 18 16 12 6 2 355 17 22 30 34 34 41 44 47 49 51 50 54 51 50 47
220 210 204 199 201 192 186 194 192 191 186 178 188 186 180 182 182 182 185 178 182 182 177 170 174 170 168 166 159 156 157 156 162 164 152 153 146 139 134 131 129 135 126 115 125 127 118 117 112 113 98 98 95 95 94 81 76 70 77 68 55 48 35 24 19 11 12 12 5 357 13 18 27 34 32 38 40 45 48 49 48 53 50 47 45
218 207 203 209 193 185 192 196 193 190 185 178 193 183 186 186 190 189 183 180 188 179 172 182 178 170 173 173 171 165 168 167 165 162 158 155 151 142 134 146 145 146 136 138 140 132 138 125 119 121 121 123 112 120 111 91 66 60 64 68 56 48 39 31 19 15 8 14 8 2 8 17 24 32 32 37 38 43 46 42 44 51 47 48 45
206 215 209 205 193 185 200 196 193 190 181 190 190 192 183 195 191 186 181 189 181 175 183 182 178 181 174 170 171 171 163 162 161 162 157 151 154 150 154 151 149 159 147 139 135 139 136 145 151 150 149 139 120 111 112 86 70 56 46 58 44 45 36 19 25 20 28 15 13 11 4 15 21 25 25 31 36 43 45 44 44 47 45 42 38
204 217 210 190 189 200 197 194 193 189 185 193 191 192 193 194 188 184 190 187 174 183 184 182 186 183 173 173 173 171 166 164 161 161 158 158 160 161 160 161 171 162 153 144 144 138 141 137 130 131 133 120 112 86 78 92 74 64 51 53 33 44 30 18 29 24 22 25 19 18 13 14 15 22 23 24 31 38 44 43 43 42 39 34 33
219 215 200 189 202 196 193 196 191 190 191 194 194 195 191 190 188 191 188 181 182 182 187 189 187 182 176 175 175 171 172 166 167 163 159 162 158 160 168 179 170 162 153 148 137 130 121 123 115 112 103 95 92 73 63 70 71 52 59 46 42 34 15 30 28 26 20 20 25 17 21 16 13 16 21 27 25 32 38 37 37 37 34 30 27
213 205 190 207 201 193 194 188 190 193 197 195 194 193 194 192 190 188 185 181 186 186 193 189 184 182 179 177 174 176 171 167 161 161 155 158 161 170 173 180 171 163 152 144 144 145 141 137 146 129 125 110 102 93 102 61 40 69 66 48 61 37 26 45 34 23 19 35 18 33 19 17 14 14 16 17 21 24 30 30 32 32 29 24 24
208 201 204 210 186 196 186 193 192 196 194 197 196 198 193 190 187 187 187 186 185 190 189 184 186 185 177 179 178 177 172 169 168 161 162 164 167 174 182 183 166 158 155 161 147 150 150 154 150 127 111 104 100 94 88 78 63 54 37 47 47 46 44 54 33 36 38 24 36 30 25 19 13 18 21 15 11 12 21 23 26 25 23 19 20
209 209 210 190 199 197 191 197 189 195 197 197 197 196 192 190 188 186 185 184 185 190 189 190 187 178 181 179 180 177 173 172 169 164 163 171 173 180 181 166 168 157 159 158 152 161 164 155 177 151 126 122 111 63 41 58 54 56 40 51 43 63 67 56 54 44 36 42 42 33 31 29 23 23 24 18 18 9 17 20 22 22 17 12 16
209 207 202 195 203 196 194 196 193 196 197 197 195 194 188 189 188 187 187 184 187 191 190 183 182 181 182 183 179 179 176 173 172 170 165 171 174 176 171 171 165 165 163 166 167 166 160 153 150 198 154 142 128 127 50 55 53 55 53 59 42 66 73 78 78 73 41 61 56 53 50 40 39 37 28 27 21 16 15 21 21 19 12 9 10
213 209 204 197 201 194 196 198 198 194 194 192 192 190 189 182 184 185 183 188 195 191 187 181 186 184 182 187 179 181 177 176 173 169 169 170 171 171 165 168 167 165 163 164 174 160 164 159 131 80 120 124 129 128 122 39 67 64 64 53 31 59 64 80 78 57 69 71 63 57 54 59 55 43 41 37 31 23 24 18 18 16 12 9 9
211 209 205 204 196 196 195 198 195 191 189 187 185 177 166 164 157 164 181 193 194 194 183 185 188 185 191 186 180 181 178 176 174 169 168 169 167 169 169 173 168 167 162 165 163 168 166 176 142 113 85 97 130 148 154 155 93 79 73 42 43 45 21 85 50 51 57 68 69 66 60 37 47 43 38 32 24 24 20 17 16 11 3 4 8
209 202 202 200 201 193 192 196 196 185 183 178 168 173 169 176 175 164 187 202 193 191 188 192 186 195 195 185 183 183 178 177 174 171 170 170 171 175 172 170 173 168 171 173 177 180 175 155 151 136 126 95 65 129 124 125 77 80 79 48 46 46 72 79 57 42 50 48 60 66 48 33 44 31 31 21 22 20 18 10 12 3 1 359 4
206 195 196 202 198 194 185 199 192 182 179 177 180 178 180 179 181 195 203 190 191 191 193 194 195 201 191 188 182 184 179 174 174 170 177 172 173 165 166 176 177 180 184 191 181 173 173 162 146 133 137 120 122 90 192 141 122 73 19 57 40 28 41 90 60 34 34 29 27 70 48 45 32 37 15 18 21 13 9 5 360 358 357 357 356
210 193 201 202 198 194 194 199 178 187 188 187 185 186 190 186 186 194 193 187 186 188 199 197 201 195 189 187 185 183 179 178 175 176 174 174 171 173 177 180 180 187 188 167 165 170 165 163 156 100 36 135 151 205 208 127 34 140 148 300 3 355 30 65 5 334 354 18 26 66 58 51 34 22 19 22 13 10 360 355 354 352 350 353 353
199 198 205 196 196 195 202 190 189 188 193 188 184 194 193 196 195 196 188 189 203 205 203 199 187 185 186 186 185 183 177 179 178 177 176 179 178 175 184 178 183 177 169 174 175 179 182 177 182 154 123 49 132 210 95 206 141 133 115 89 359 30 334 358 329 316 315 322 18 63 74 69 25 38 37 34 13 357 348 348 347 348 342 343 345
206 207 202 198 196 201 198 192 192 191 188 191 193 194 188 183 173 96 160 154 179 170 170 157 180 171 187 187 191 182 180 182 175 179 180 181 180 183 176 179 184 184 181 174 181 185 182 186 186 177 143 129 150 216 85 85 139 141 90 86 191 127 338 293 320 295 15 6 77 66 72 87 21 35 49 37 358 349 334 338 343 340 333 331 333
209 207 199 197 199 202 198 192 189 190 190 188 187 170 154 141 127 84 99 88 77 150 161 195 187 187 187 195 194 180 183 184 182 182 182 183 182 181 179 182 181 186 183 183 186 190 187 185 178 167 180 154 176 192 211 67 72 7 140 111 54 21 216 213 59 292 354 112 292 30 348 143 54 84 84 18 3 338 317 325 333 334 324 324 327
220 217 203 205 199 199 192 190 188 188 188 185 178 169 175 172 164 163 171 184 192 183 197 200 181 189 201 185 183 192 187 186 182 183 185 180 183 183 181 178 183 184 190 193 188 172 186 185 193 183 179 194 146 152 134 81 72 70 77 119 169 174 181 228 123 254 314 8 287 265 232 251 224 143 126 48 351 314 308 305 330 318 321 319 316
230 211 203 204 202 197 191 190 189 188 185 181 176 175 178 183 186 189 190 189 195 207 203 187 189 197 186 187 193 186 189 185 186 185 186 185 182 182 182 184 184 187 187 183 188 193 190 193 179 186 186 153 138 147 164 169 92 39 44 48 64 43 113 131 195 85 343 308 288 273 231 255 249 180 197 227 230 235 277 278 302 307 311 311 311
229 199 207 200 197 196 187 189 188 187 185 177 180 183 184 186 190 197 198 202 206 203 185 191 187 185 189 191 183 189 189 191 186 188 187 185 182 183 182 181 185 189 184 194 195 191 183 187 191 187 156 178 173 159 165 170 161 173 100 79 63 55 44 64 109 155 156 199 298 317 339 328 326 281 259 253 207 208 266 291 301 306 309 313 315
236 213 211 203 195 188 185 185 190 186 184 180 182 187 189 188 191 193 201 211 205 194 171 175 185 183 189 184 185 186 189 194 192 188 188 186 186 184 181 184 187 188 190 192 194 185 186 180 180 177 185 191 192 156 149 181 168 159 139 79 79 60 51 45 48 72 131 144 263 253 283 328 325 279 301 262 243 233 252 286 283 275 287 316 320
253 245 235 201 193 182 185 185 192 187 182 182 185 188 190 186 191 199 203 201 189 171 161 179 184 175 190 187 187 183 189 191 196 191 188 191 187 182 186 190 190 187 188 192 184 183 189 192 189 187 180 179 181 171 176 170 172 156 162 148 134 105 61 29 39 102 42 143 207 211 182 310 307 266 240 276 273 275 285 284 279 264 209 214 275
273 234 223 200 187 188 188 192 194 184 183 185 184 190 191 191 198 198 199 196 188 176 172 184 177 174 191 190 189 192 186 194 188 193 194 188 189 188 188 192 188 186 189 186 190 187 188 187 186 180 182 179 178 174 149 156 153 159 162 168 167 171 171 172 187 185 159 161 205 253 204 214 231 304 275 264 285 281 271 262 236 244 169 260 258